FW0267 Weather Reports


time (UTC)temp
C
wind
direction
speed
KPH
gust
KPH
rain 1hr
cm
rain 24hr
cm
rain mn
cm
humidity
%
barometer
mb
20260510214540 28 136 1.6 8.0 0.00 0.00 0.00 31 1012.4
20260510214040 28 150 1.6 4.8 0.00 0.00 0.00 31 1012.4
20260510213540 28 119 0.0 3.2 0.00 0.00 0.00 31 1012.4
20260510213046 28 105 0.0 4.8 0.00 0.00 0.00 30 1012.4
20260510212534 28 121 1.6 14.5 0.00 0.00 0.00 30 1012.5
20260510212035 28 157 1.6 14.5 0.00 0.00 0.00 30 1012.4
20260510211534 28 146 0.0 4.8 0.00 0.00 0.00 30 1012.5
20260510211031 28 117 1.6 11.3 0.00 0.00 0.00 30 1012.5
20260510210528 28 167 3.2 11.3 0.00 0.00 0.00 29 1012.3
20260510210041 28 124 0.0 11.3 0.00 0.00 0.00 32 1012.3
20260510205526 28 118 0.0 6.4 0.00 0.00 0.00 30 1012.3
20260510205024 28 131 0.0 3.2 0.00 0.00 0.00 31 1012.4
20260510204534 28 108 0.0 3.2 0.00 0.00 0.00 30 1012.5
20260510204021 28 121 0.0 4.8 0.00 0.00 0.00 30 1012.4
20260510203519 29 139 1.6 4.8 0.00 0.00 0.00 29 1012.5
20260510203019 29 148 0.0 4.8 0.00 0.00 0.00 30 1012.4
20260510202519 29 124 0.0 3.2 0.00 0.00 0.00 29 1012.5
20260510202015 30 144 0.0 4.8 0.00 0.00 0.00 29 1012.3
20260510201514 30 155 1.6 6.4 0.00 0.00 0.00 28 1012.4
20260510201016 30 126 1.6 3.2 0.00 0.00 0.00 28 1012.6
20260510200511 31 136 0.0 3.2 0.00 0.00 0.00 29 1012.6
20260510200010 31 142 0.0 4.8 0.00 0.00 0.00 30 1012.7
20260510195507 31 115 1.6 6.4 0.00 0.00 0.00 27 1012.8
20260510195006 31 146 1.6 6.4 0.00 0.00 0.00 29 1012.8
20260510194508 31 167 0.0 4.8 0.00 0.00 0.00 29 1012.8
20260510194005 31 150 1.6 4.8 0.00 0.00 0.00 27 1012.8
20260510193503 31 128 1.6 4.8 0.00 0.00 0.00 29 1013.0
20260510193102 31 138 0.0 6.4 0.00 0.00 0.00 30 1013.1
20260510192600 31 130 1.6 6.4 0.00 0.00 0.00 27 1013.1
20260510192059 31 138 1.6 12.9 0.00 0.00 0.00 29 1013.3
20260510191557 31 61 1.6 12.9 0.00 0.00 0.00 28 1013.2
20260510191055 31 134 1.6 16.1 0.00 0.00 0.00 28 1013.1
20260510190553 31 153 1.6 16.1 0.00 0.00 0.00 31 1013.2
20260510190055 31 161 0.0 8.0 0.00 0.00 0.00 27 1013.3
20260510185550 31 169 0.0 3.2 0.00 0.00 0.00 29 1013.3
20260510185049 31 57 1.6 3.2 0.00 0.00 0.00 29 1013.5
20260510184547 31 121 0.0 4.8 0.00 0.00 0.00 29 1013.4
20260510184045 31 109 1.6 14.5 0.00 0.00 0.00 30 1013.4
20260510183546 31 159 1.6 14.5 0.00 0.00 0.00 28 1013.5
20260510183055 31 126 1.6 6.4 0.00 0.00 0.00 28 1013.4
20260510182543 31 117 0.0 6.4 0.00 0.00 0.00 31 1013.4
20260510182040 31 115 1.6 6.4 0.00 0.00 0.00 30 1013.5
20260510181611 31 131 1.6 9.7 0.00 0.00 0.00 29 1013.4
20260510181037 31 155 1.6 4.8 0.00 0.00 0.00 30 1013.4
20260510180536 31 163 0.0 8.0 0.00 0.00 0.00 31 1013.5
20260510180042 31 166 0.0 8.0 0.00 0.00 0.00 30 1013.7
20260510175535 30 107 0.0 4.8 0.00 0.00 0.00 30 1013.7
20260510175030 30 131 1.6 4.8 0.00 0.00 0.00 31 1013.8
20260510174548 30 117 1.6 6.4 0.00 0.00 0.00 29 1013.8
20260510174028 31 174 1.6 6.4 0.00 0.00 0.00 30 1013.8
20260510173526 30 161 1.6 6.4 0.00 0.00 0.00 30 1013.8
20260510173025 30 101 3.2 6.4 0.00 0.00 0.00 31 1013.8
20260510172524 30 171 1.6 6.4 0.00 0.00 0.00 32 1013.7
20260510172021 30 165 1.6 6.4 0.00 0.00 0.00 33 1013.8
20260510171520 30 126 1.6 3.2 0.00 0.00 0.00 31 1013.7
20260510171018 30 129 0.0 3.2 0.00 0.00 0.00 31 1013.9
20260510170517 30 55 1.6 6.4 0.00 0.00 0.00 32 1013.9
20260510170017 30 186 1.6 8.0 0.00 0.00 0.00 32 1014.0
20260510165514 30 146 3.2 8.0 0.00 0.00 0.00 31 1014.0
20260510165013 30 126 1.6 8.0 0.00 0.00 0.00 31 1014.0
20260510164511 30 171 0.0 8.0 0.00 0.00 0.00 30 1014.1
20260510164010 30 161 1.6 6.4 0.00 0.00 0.00 33 1014.1
20260510163508 30 168 1.6 8.0 0.00 0.00 0.00 37 1014.1
20260510163007 29 165 1.6 8.0 0.00 0.00 0.00 34 1014.1
20260510162506 29 145 0.0 9.7 0.00 0.00 0.00 35 1014.1
20260510162007 29 111 1.6 9.7 0.00 0.00 0.00 34 1014.2
20260510161503 29 113 0.0 4.8 0.00 0.00 0.00 33 1014.2
20260510161001 29 153 1.6 11.3 0.00 0.00 0.00 33 1014.4
20260510160559 29 171 1.6 9.7 0.00 0.00 0.00 34 1014.5
20260510160104 29 149 3.2 6.4 0.00 0.00 0.00 33 1014.6
20260510155556 29 139 1.6 4.8 0.00 0.00 0.00 34 1014.6
20260510155054 29 132 0.0 4.8 0.00 0.00 0.00 39 1014.5
20260510154558 29 350 0.0 4.8 0.00 0.00 0.00 36 1014.6
20260510154055 28 86 3.2 6.4 0.00 0.00 0.00 35 1014.6
20260510153549 28 140 1.6 6.4 0.00 0.00 0.00 35 1014.7
20260510153051 28 128 0.0 4.8 0.00 0.00 0.00 37 1014.8
20260510152548 28 127 0.0 3.2 0.00 0.00 0.00 40 1014.8
20260510152046 28 120 1.6 3.2 0.00 0.00 0.00 39 1014.7
20260510151548 28 113 0.0 3.2 0.00 0.00 0.00 37 1014.9
20260510151042 28 136 0.0 4.8 0.00 0.00 0.00 37 1014.9
20260510150541 28 140 1.6 3.2 0.00 0.00 0.00 41 1015.0
20260510150041 27 140 0.0 3.2 0.00 0.00 0.00 42 1015.0
20260510145538 27 139 0.0 3.2 0.00 0.00 0.00 40 1015.0
20260510145036 27 140 0.0 4.8 0.00 0.00 0.00 39 1014.9
20260510144535 27 38 0.0 4.8 0.00 0.00 0.00 38 1014.9
20260510144036 27 84 0.0 4.8 0.00 0.00 0.00 41 1014.9
20260510143531 26 84 1.6 4.8 0.00 0.00 0.00 42 1014.9
20260510143031 26 80 0.0 4.8 0.00 0.00 0.00 43 1014.7
20260510142529 26 80 0.0 4.8 0.00 0.00 0.00 41 1014.7
20260510142030 26 80 0.0 3.2 0.00 0.00 0.00 44 1014.7
20260510141534 26 44 0.0 3.2 0.00 0.00 0.00 44 1014.6
20260510141025 25 106 0.0 3.2 0.00 0.00 0.00 44 1014.7
20260510140524 25 104 0.0 1.6 0.00 0.00 0.00 46 1014.6
20260510140022 25 90 0.0 3.2 0.00 0.00 0.00 46 1014.7
20260510135521 24 342 0.0 3.2 0.00 0.00 0.00 48 1014.7
20260510135021 23 342 0.0 3.2 0.00 0.00 0.00 48 1014.7
20260510134518 23 342 0.0 3.2 0.00 0.00 0.00 49 1014.5
20260510134017 23 342 0.0 3.2 0.00 0.00 0.00 50 1014.6
20260510133517 22 342 0.0 0.0 0.00 0.00 0.00 49 1014.6
20260510133014 22 342 0.0 3.2 0.00 0.00 0.00 46 1014.6
20260510132512 22 342 0.0 3.2 0.00 0.00 0.00 39 1014.6
20260510132010 21 342 0.0 0.0 0.00 0.00 0.00 22 1014.7
20260510131509 20 342 0.0 0.0 0.00 0.00 0.00 6 1014.8
20260510131008 20 342 0.0 0.0 0.00 0.00 0.00 1 1014.8
20260510130506 20 342 0.0 0.0 0.00 0.00 0.00 1 1014.7
20260510130005 19 342 0.0 0.0 0.00 0.00 0.00 1 1014.5
20260510125504 18 342 0.0 1.6 0.00 0.00 0.00 1 1014.4
20260510125001 18 342 0.0 1.6 0.00 0.00 0.00 1 1014.3
20260510124605 18 342 0.0 1.6 0.00 0.00 0.00 1 1014.5
20260510124059 17 342 0.0 0.0 0.00 0.00 0.00 1 1014.4
20260510123558 17 342 0.0 0.0 0.00 0.00 0.00 1 1014.4
20260510123056 17 342 0.0 0.0 0.00 0.00 0.00 1 1014.5
20260510122554 16 342 0.0 0.0 0.00 0.00 0.00 1 1014.4
20260510122053 16 342 0.0 0.0 0.00 0.00 0.00 1 1014.3
20260510121551 16 342 0.0 0.0 0.00 0.00 0.00 1 1014.0
20260510121051 15 342 0.0 0.0 0.00 0.00 0.00 1 1013.9
20260510120548 15 342 0.0 0.0 0.00 0.00 0.00 1 1013.7
20260510120047 15 342 0.0 0.0 0.00 0.00 0.00 1 1013.6
20260510115546 15 342 0.0 0.0 0.00 0.00 0.00 1 1013.5
20260510115044 14 342 0.0 0.0 0.00 0.00 0.00 1 1013.5
20260510114543 14 342 0.0 0.0 0.00 0.00 0.00 1 1013.5
20260510114041 13 342 0.0 0.0 0.00 0.00 0.00 1 1013.4
20260510113539 13 342 0.0 0.0 0.00 0.00 0.00 1 1013.4
20260510113040 13 342 0.0 0.0 0.00 0.00 0.00 1 1013.3
20260510112537 13 51 0.0 0.0 0.00 0.00 0.00 1 1013.2
20260510112038 13 51 0.0 0.0 0.00 0.00 0.00 1 1013.2
20260510111534 13 51 0.0 0.0 0.00 0.00 0.00 1 1013.2
20260510111032 13 51 0.0 1.6 0.00 0.00 0.00 1 1013.1
20260510110531 13 51 0.0 1.6 0.00 0.00 0.00 1 1013.1
20260510110034 13 211 0.0 0.0 0.00 0.00 0.00 1 1013.1
20260510105531 13 211 0.0 0.0 0.00 0.00 0.00 1 1013.1
20260510105027 13 211 0.0 0.0 0.00 0.00 0.00 1 1013.1
20260510104525 13 211 0.0 0.0 0.00 0.00 0.00 1 1013.0
20260510104027 13 211 0.0 0.0 0.00 0.00 0.00 1 1013.0
20260510103522 13 211 0.0 0.0 0.00 0.00 0.00 1 1012.8
20260510103024 13 211 0.0 0.0 0.00 0.00 0.00 1 1012.9
20260510102519 13 211 0.0 0.0 0.00 0.00 0.00 1 1012.7
20260510102018 13 211 0.0 0.0 0.00 0.00 0.00 1 1012.7
20260510101518 13 211 0.0 0.0 0.00 0.00 0.00 1 1012.6
20260510101015 13 211 0.0 0.0 0.00 0.00 0.00 1 1012.6
20260510100513 14 211 0.0 0.0 0.00 0.00 0.00 1 1012.5
20260510100012 14 211 0.0 0.0 0.00 0.00 0.00 1 1012.3
20260510095511 14 211 0.0 0.0 0.00 0.00 0.00 1 1012.3
20260510095008 14 211 0.0 0.0 0.00 0.00 0.00 1 1012.3
20260510094507 14 211 0.0 0.0 0.00 0.00 0.00 1 1012.2
20260510094006 14 211 0.0 0.0 0.00 0.00 0.00 1 1012.1
20260510093505 15 211 0.0 0.0 0.00 0.00 0.00 1 1012.2
20260510093004 15 211 0.0 0.0 0.00 0.00 0.00 1 1012.2
20260510092503 15 211 0.0 0.0 0.00 0.00 0.00 1 1012.1
20260510092101 15 211 0.0 0.0 0.00 0.00 0.00 1 1012.1
20260510091600 15 211 0.0 0.0 0.00 0.00 0.00 1 1012.0
20260510091057 15 211 0.0 0.0 0.00 0.00 0.00 1 1012.1
20260510090556 15 211 0.0 0.0 0.00 0.00 0.00 1 1011.9
20260510090055 15 211 0.0 0.0 0.00 0.00 0.00 1 1011.8
20260510085555 15 211 0.0 0.0 0.00 0.00 0.00 1 1011.7
20260510085051 15 211 0.0 0.0 0.00 0.00 0.00 1 1011.8
20260510084549 15 211 0.0 0.0 0.00 0.00 0.00 1 1011.8
20260510084048 15 211 0.0 0.0 0.00 0.00 0.00 1 1011.8
20260510083547 16 211 0.0 0.0 0.00 0.00 0.00 1 1011.7
20260510083053 16 211 0.0 0.0 0.00 0.00 0.00 1 1011.7
20260510082544 16 211 0.0 0.0 0.00 0.00 0.00 1 1011.7
20260510082042 16 211 0.0 0.0 0.00 0.00 0.00 1 1011.7
20260510081546 16 211 0.0 0.0 0.00 0.00 0.00 1 1011.7
20260510081041 16 211 0.0 0.0 0.00 0.00 0.00 1 1011.6
20260510080539 16 211 0.0 0.0 0.00 0.00 0.00 1 1011.7
20260510080043 16 211 0.0 0.0 0.00 0.00 0.00 1 1011.7
20260510075541 16 211 0.0 0.0 0.00 0.00 0.00 1 1011.6
20260510075034 16 211 0.0 0.0 0.00 0.00 0.00 1 1011.5
20260510074534 16 211 0.0 0.0 0.00 0.00 0.00 1 1011.5
20260510074032 16 211 0.0 0.0 0.00 0.00 0.00 1 1011.4
20260510073530 17 211 0.0 0.0 0.00 0.00 0.00 1 1011.4
20260510073029 17 211 0.0 0.0 0.00 0.00 0.00 1 1011.4
20260510072527 17 211 0.0 0.0 0.00 0.00 0.00 1 1011.4
20260510072030 17 211 0.0 0.0 0.00 0.00 0.00 1 1011.4
20260510071535 17 211 0.0 0.0 0.00 0.00 0.00 1 1011.4
20260510071023 17 211 0.0 0.0 0.00 0.00 0.00 1 1011.4
20260510070521 17 211 0.0 0.0 0.00 0.00 0.00 1 1011.3
20260510070020 17 211 0.0 0.0 0.00 0.00 0.00 1 1011.3
20260510065519 17 211 0.0 0.0 0.00 0.00 0.00 1 1011.4
20260510065017 17 211 0.0 0.0 0.00 0.00 0.00 1 1011.4
20260510064515 17 211 0.0 0.0 0.00 0.00 0.00 1 1011.3
20260510064014 17 211 0.0 0.0 0.00 0.00 0.00 1 1011.3
20260510063516 17 211 0.0 0.0 0.00 0.00 0.00 1 1011.4
20260510063011 17 211 0.0 0.0 0.00 0.00 0.00 1 1011.5
20260510062510 17 211 0.0 0.0 0.00 0.00 0.00 1 1011.5
20260510062008 17 211 0.0 0.0 0.00 0.00 0.00 1 1011.4
20260510061507 17 211 0.0 0.0 0.00 0.00 0.00 1 1011.4
20260510061005 18 211 0.0 0.0 0.00 0.00 0.00 1 1011.5
20260510060504 18 211 0.0 3.2 0.00 0.00 0.00 1 1011.6
20260510060002 18 211 0.0 3.2 0.00 0.00 0.00 1 1011.5
20260510055501 18 211 0.0 3.2 0.00 0.00 0.00 1 1011.5
20260510055059 18 211 0.0 3.2 0.00 0.00 0.00 1 1011.3
20260510054558 18 211 0.0 3.2 0.00 0.00 0.00 1 1011.5
20260510054056 18 211 0.0 4.8 0.00 0.00 0.00 1 1011.6
20260510053555 18 211 0.0 4.8 0.00 0.00 0.00 1 1011.6
20260510053054 18 211 0.0 4.8 0.00 0.00 0.00 1 1011.6
20260510052553 18 211 1.6 4.8 0.00 0.00 0.00 1 1011.5
20260510052054 18 211 1.6 4.8 0.00 0.00 0.00 1 1011.6
20260510051550 18 211 1.6 4.8 0.00 0.00 0.00 1 1011.5
20260510051048 18 211 0.0 4.8 0.00 0.00 0.00 1 1011.5
20260510050546 18 211 0.0 0.0 0.00 0.00 0.00 1 1011.6
20260510050045 18 211 0.0 0.0 0.00 0.00 0.00 1 1011.6
20260510045544 18 211 0.0 1.6 0.00 0.00 0.00 1 1011.5
20260510045042 18 211 0.0 4.8 0.00 0.00 0.00 1 1011.6
20260510044544 18 211 1.6 4.8 0.00 0.00 0.00 1 1011.7
20260510044042 18 211 1.6 4.8 0.00 0.00 0.00 1 1011.7
20260510043538 18 211 1.6 4.8 0.00 0.00 0.00 1 1011.6
20260510043036 18 211 1.6 6.4 0.00 0.00 0.00 1 1011.7
20260510042535 18 209 1.6 4.8 0.00 0.00 0.00 1 1011.5
20260510042034 18 210 1.6 4.8 0.00 0.00 0.00 1 1011.5
20260510041532 18 131 0.0 0.0 0.00 0.00 0.00 1 1011.5
20260510041030 17 131 0.0 0.0 0.00 0.00 0.00 1 1011.5
20260510040529 17 131 0.0 0.0 0.00 0.00 0.00 1 1011.5
20260510040029 17 131 0.0 0.0 0.00 0.00 0.00 1 1011.4
20260510035527 17 131 0.0 0.0 0.00 0.00 0.00 1 1011.5
20260510035027 17 130 0.0 0.0 0.00 0.00 0.00 1 1011.5
20260510034523 17 130 0.0 0.0 0.00 0.00 0.00 1 1011.4
20260510034022 17 130 0.0 0.0 0.00 0.00 0.00 1 1011.4
20260510033520 17 130 0.0 0.0 0.00 0.00 0.00 1 1011.4
20260510033019 17 130 0.0 0.0 0.00 0.00 0.00 1 1011.4
20260510032517 17 130 0.0 0.0 0.00 0.00 0.00 1 1011.4
20260510032016 17 130 0.0 0.0 0.00 0.00 0.00 1 1011.3
20260510031532 17 130 0.0 0.0 0.00 0.00 0.00 1 1011.4
20260510031012 17 130 0.0 0.0 0.00 0.00 0.00 1 1011.3
20260510030511 17 130 0.0 0.0 0.00 0.00 0.00 1 1011.2
20260510030012 17 130 0.0 0.0 0.00 0.00 0.00 1 1011.3
20260510025509 17 130 0.0 0.0 0.00 0.00 0.00 1 1011.2
20260510025007 17 130 0.0 0.0 0.00 0.00 0.00 1 1011.2
20260510024506 17 130 0.0 0.0 0.00 0.00 0.00 1 1011.1
20260510024004 17 130 0.0 0.0 0.00 0.00 0.00 1 1011.1
20260510023502 17 130 0.0 0.0 0.00 0.00 0.00 1 1011.0
20260510023001 17 130 0.0 0.0 0.00 0.00 0.00 1 1011.1
20260510022601 17 130 0.0 0.0 0.00 0.00 0.00 1 1011.0
20260510022058 17 130 0.0 0.0 0.00 0.00 0.00 1 1010.9
20260510021557 18 130 0.0 0.0 0.00 0.00 0.00 1 1010.9
20260510021057 18 130 0.0 0.0 0.00 0.00 0.00 4 1010.8
20260510020554 18 130 0.0 0.0 0.00 0.00 0.00 8 1010.7
20260510020053 18 130 0.0 0.0 0.00 0.00 0.00 10 1010.7
20260510015552 18 130 0.0 0.0 0.00 0.00 0.00 13 1010.5
20260510015049 18 130 0.0 0.0 0.00 0.00 0.00 15 1010.4
20260510014548 18 130 0.0 0.0 0.00 0.00 0.00 18 1010.4
20260510014048 18 130 0.0 0.0 0.00 0.00 0.00 20 1010.3
20260510013544 18 130 0.0 0.0 0.00 0.00 0.00 23 1010.2
20260510013044 19 130 0.0 0.0 0.00 0.00 0.00 26 1010.3
20260510012542 19 130 0.0 0.0 0.00 0.00 0.00 28 1010.3
20260510012041 19 130 0.0 0.0 0.00 0.00 0.00 30 1010.2
20260510011551 19 130 0.0 0.0 0.00 0.00 0.00 32 1010.1
20260510011037 20 130 0.0 0.0 0.00 0.00 0.00 34 1010.1
20260510010536 20 130 0.0 0.0 0.00 0.00 0.00 36 1010.0
20260510010036 20 130 0.0 0.0 0.00 0.00 0.00 39 1010.0
20260510005534 20 130 0.0 0.0 0.00 0.00 0.00 41 1010.0
20260510005032 20 130 0.0 0.0 0.00 0.00 0.00 43 1009.9
20260510004531 20 130 0.0 0.0 0.00 0.00 0.00 46 1009.9
20260510004028 21 130 0.0 0.0 0.00 0.00 0.00 47 1009.8
20260510003527 21 130 0.0 0.0 0.00 0.00 0.00 49 1009.7
20260510003052 21 130 0.0 0.0 0.00 0.00 0.00 49 1009.7
20260510002527 21 130 0.0 0.0 0.00 0.00 0.00 50 1009.7
20260510002022 21 130 0.0 0.0 0.00 0.00 0.00 51 1009.6
20260510001523 21 130 0.0 0.0 0.00 0.00 0.00 51 1009.5
20260510001020 22 130 0.0 0.0 0.00 0.00 0.00 52 1009.5
20260510000519 22 130 0.0 0.0 0.00 0.00 0.00 52 1009.4
20260510000017 22 130 0.0 0.0 0.00 0.00 0.00 52 1009.3
20260509235515 22 130 0.0 0.0 0.00 0.00 0.00 52 1009.3
20260509235014 22 130 0.0 0.0 0.00 0.00 0.00 52 1009.2
20260509234522 22 130 0.0 0.0 0.00 0.00 0.00 52 1009.1
20260509234010 22 130 0.0 0.0 0.00 0.00 0.00 52 1009.1
20260509233511 22 130 0.0 0.0 0.00 0.00 0.00 52 1009.2
20260509233012 22 130 0.0 0.0 0.00 0.00 0.00 52 1009.2
20260509232507 22 130 0.0 0.0 0.00 0.00 0.00 52 1009.2
20260509232006 22 130 0.0 0.0 0.00 0.00 0.00 51 1009.2
20260509231504 23 129 0.0 0.0 0.00 0.00 0.00 51 1009.2
20260509231002 23 129 0.0 0.0 0.00 0.00 0.00 52 1009.1
20260509230601 23 129 0.0 0.0 0.00 0.00 0.00 51 1009.1
20260509230109 23 129 0.0 0.0 0.00 0.00 0.00 51 1009.1
20260509225558 23 129 0.0 0.0 0.00 0.00 0.00 51 1009.2
20260509225056 23 129 0.0 4.8 0.00 0.00 0.00 51 1009.0
20260509224555 23 129 0.0 4.8 0.00 0.00 0.00 51 1008.9
20260509224054 23 158 0.0 3.2 0.00 0.00 0.00 50 1009.0
20260509223552 23 213 0.0 3.2 0.00 0.00 0.00 50 1009.0
20260509223051 23 213 0.0 3.2 0.00 0.00 0.00 50 1009.0
20260509222549 23 213 0.0 0.0 0.00 0.00 0.00 50 1009.0
20260509222047 23 213 0.0 0.0 0.00 0.00 0.00 49 1009.0
20260509221546 23 213 0.0 4.8 0.00 0.00 0.00 49 1009.1
20260509221045 23 213 0.0 4.8 0.00 0.00 0.00 48 1009.0
20260509220543 23 213 0.0 4.8 0.00 0.00 0.00 49 1009.0
20260509220042 23 194 1.6 6.4 0.00 0.00 0.00 50 1009.0
20260509215543 23 196 0.0 6.4 0.00 0.00 0.00 50 1008.9
20260509215040 23 161 0.0 4.8 0.00 0.00 0.00 51 1008.9